Home   Weather   Amsterdam   Past weeks
Flag for Netherlands

Past Weather in Amsterdam, Netherlands — Yesterday and Last 2 Weeks

Now
46 °F

Clear.


Feels Like: 43 °F
Forecast: 48 / 42 °F
Wind: 7 mph from Southwest

Location: Amsterdam Schiphol Airport

Current Time: Feb 18, 2019 at 9:49:04 pm

Latest Report: Feb 18, 2019 at 8:55 pm


Visibility: 10 mi

Pressure: 29.95 "Hg

Humidity: 87%

Dew Point: 43 °F

Location of AmsterdamLocation

Past Weather in Amsterdam — Graph

°F

Amsterdam Temperature Yesterday

Maximum temperature yesterday: 57 °F (at 1:55 pm)
Minimum temperature yesterday: 37 °F (at 3:55 am)
Average temperature yesterday: 45 °F

High & Low Weather Summary for the Past Weeks

 TemperatureHumidityPressure
High57 °F (Feb 15, 1:55 pm)100% (Feb 4, 4:25 pm)30.57 "Hg (Feb 4, 4:25 pm)
Low32 °F (Feb 3, 8:25 pm)47% (Feb 15, 1:25 pm)29.12 "Hg (Feb 10, 10:25 am)
Average43 °F84%30.08 "Hg
* Reported Feb 3 8:25 pm — Feb 18 8:25 pm, Amsterdam. Weather by CustomWeather, © 2019

Note: Actual official high and low records may vary slightly from our data, if they occured in-between our weather recording intervals... More about our weather records

Advertising

Amsterdam Weather History for the Previous 24 Hours

Scroll right to see more
 ConditionsComfort  
Time TempWeatherWind HumidityBarometerVisibility
8:25 pm
Mon, Feb 18
50 °FPassing clouds.8 mph88%29.95 "HgN/A
7:55 pm48 °FPassing clouds.8 mph94%29.95 "HgN/A
7:25 pm50 °FOvercast.8 mph88%29.95 "HgN/A
6:55 pm50 °FOvercast.10 mph88%29.95 "HgN/A
6:25 pm50 °FPassing clouds.13 mph88%29.95 "HgN/A
5:55 pm52 °FPartly sunny.12 mph82%29.95 "HgN/A
5:25 pm50 °FScattered clouds.10 mph88%29.95 "HgN/A
4:55 pm52 °FPassing clouds.6 mph82%29.95 "HgN/A
4:25 pm55 °FPassing clouds.7 mph72%29.95 "HgN/A
3:55 pm55 °FPassing clouds.6 mph77%29.95 "HgN/A
3:25 pm55 °FPassing clouds.7 mph77%29.98 "HgN/A
2:55 pm55 °FPassing clouds.7 mph72%29.98 "HgN/A
2:25 pm55 °FPassing clouds.13 mph77%29.98 "HgN/A
1:55 pm55 °FPassing clouds.13 mph77%29.98 "HgN/A
1:25 pm55 °FPassing clouds.13 mph72%30.01 "HgN/A
12:55 pm54 °FSunny.12 mph72%30.01 "Hg10 mi
12:25 pm54 °FSunny.10 mph72%30.01 "Hg10 mi
11:55 am52 °FSunny.10 mph72%30.04 "Hg10 mi
11:25 am50 °FPassing clouds.8 mph71%30.04 "HgN/A
10:55 am48 °FPassing clouds.8 mph76%30.04 "HgN/A
10:25 am46 °FSunny.7 mph71%30.04 "Hg10 mi
9:55 am45 °FSunny.7 mph76%30.04 "Hg10 mi
9:25 am43 °FSunny.6 mph76%30.04 "Hg10 mi
8:55 am41 °FSunny.7 mph76%30.04 "Hg10 mi
8:25 am39 °FSunny.8 mph81%30.04 "Hg10 mi
7:55 am37 °FSunny.9 mph81%30.04 "Hg10 mi
6:55 am39 °FClear.6 mph81%30.04 "Hg10 mi
6:25 am37 °FClear.7 mph87%30.04 "Hg10 mi
5:55 am37 °FPassing clouds.3 mph87%30.04 "HgN/A
5:25 am41 °FClear.10 mph81%30.04 "Hg10 mi
4:55 am39 °FClear.7 mph81%30.04 "Hg10 mi
3:55 am39 °FClear.7 mph81%30.07 "Hg10 mi
3:25 am37 °FClear.3 mph87%30.07 "Hg10 mi
2:55 am39 °FClear.5 mph87%30.07 "Hg10 mi
2:25 am39 °FClear.5 mph87%30.07 "Hg10 mi
1:55 am39 °FClear.3 mph81%30.07 "Hg10 mi
12:55 am39 °FClear.6 mph81%30.07 "Hg10 mi
12:25 am39 °FClear.3 mph81%30.07 "Hg10 mi
11:55 pm
Sun, Feb 17
41 °FClear.6 mph81%30.07 "Hg10 mi
11:25 pm39 °FClear.3 mph87%30.07 "Hg10 mi
10:55 pm41 °FClear.8 mph76%30.07 "Hg10 mi
10:25 pm45 °FPassing clouds.3 mph71%30.07 "HgN/A
9:55 pm45 °FClear.6 mph71%30.07 "Hg10 mi
9:25 pm46 °FClear.9 mph71%30.07 "Hg10 mi
Weather by CustomWeather, © 2019

See weather overview